Location: Buckeye Ditch
(40.9104°N, 122.9517°W)
Time: 19:36:13
(UTC+00:00)

BlueWalker 3 - Pass Details

Date: 28 June 2024
Orbit: 480 x 491 km, 53.2° (Epoch: 24 July)

Event Time Altitude Azimuth Distance (km) Brightness Sun altitude
Rises 08:19:41 0° 309° (NW) 2,539 6.0 -25.8°
Reaches altitude 10° 08:21:51 10° 311° (NW) 1,656 5.0 -25.8°
Enters shadow 08:23:49 29° 315° (NW) 898 3.5 -25.8°
